Time,TemperatureF,DewpointF,PressureIn,WindDirection,WindDirectionDegrees,WindSpeedMPH,WindSpeedGustMPH,Humidity,HourlyPrecipIn,Conditions,Clouds,dailyrainin,SoftwareType,DateUTC
2013-06-19 00:01:00,51.3,49.3,30.50,NNW,340,0.0,0.0,93,0.00,CLR,,0.00,WeatherDisplay:10.37,2013-06-19 04:01:00,
2013-06-19 00:06:00,51.0,49.0,30.50,NNW,340,0.0,0.0,93,0.00,CLR,,0.00,WeatherDisplay:10.37,2013-06-19 04:06:00,
2013-06-19 00:11:00,50.9,48.9,30.50,NNW,340,0.0,0.0,93,0.00,CLR,,0.00,WeatherDisplay:10.37,2013-06-19 04:11:00,
2013-06-19 00:16:00,50.7,49.0,30.50,NNW,339,0.0,0.0,94,0.00,CLR,,0.00,WeatherDisplay:10.37,2013-06-19 04:16:00,
2013-06-19 00:21:00,50.4,48.7,30.50,NNW,339,0.0,0.0,94,0.00,CLR,,0.00,WeatherDisplay:10.37,2013-06-19 04:21:00,
2013-06-19 00:26:00,50.3,48.9,30.50,NNW,340,0.0,0.0,95,0.00,CLR,,0.00,WeatherDisplay:10.37,2013-06-19 04:26:00,
2013-06-19 00:31:00,50.2,48.8,30.50,NNW,340,0.0,0.0,95,0.00,CLR,,0.00,WeatherDisplay:10.37,2013-06-19 04:31:00,
2013-06-19 00:36:00,50.0,48.6,30.50,NNW,340,0.0,0.0,95,0.00,CLR,,0.00,WeatherDisplay:10.37,2013-06-19 04:36:00,
2013-06-19 00:41:00,49.7,48.3,30.50,NNW,340,0.0,0.0,95,0.00,CLR,,0.00,WeatherDisplay:10.37,2013-06-19 04:41:00,
2013-06-19 00:46:00,49.9,48.8,30.51,NNW,340,0.0,0.0,96,0.00,CLR,,0.00,WeatherDisplay:10.37,2013-06-19 04:46:00,
2013-06-19 00:51:00,50.3,49.2,30.51,NNW,340,0.0,0.0,96,0.00,CLR,,0.00,WeatherDisplay:10.37,2013-06-19 04:51:00,
2013-06-19 00:56:00,50.5,49.4,30.51,NNW,340,0.0,0.0,96,0.00,CLR,,0.00,WeatherDisplay:10.37,2013-06-19 04:56:00,
2013-06-19 01:01:00,50.6,49.5,30.51,NNW,340,0.0,0.0,96,0.00,SCT,,0.00,WeatherDisplay:10.37,2013-06-19 05:01:00,
2013-06-19 01:06:00,50.8,49.4,30.51,NNW,340,0.0,0.0,95,0.00,SCT,,0.00,WeatherDisplay:10.37,2013-06-19 05:06:00,
2013-06-19 01:11:00,50.7,49.3,30.51,NNW,340,0.0,0.0,95,0.00,SCT,,0.00,WeatherDisplay:10.37,2013-06-19 05:11:00,
2013-06-19 01:16:00,50.3,48.6,30.51,NNW,340,0.0,0.0,94,0.00,SCT,,0.00,WeatherDisplay:10.37,2013-06-19 05:16:00,
2013-06-19 01:21:00,50.1,48.7,30.51,NNW,340,0.0,0.0,95,0.00,SCT,,0.00,WeatherDisplay:10.37,2013-06-19 05:21:00,
2013-06-19 01:26:00,50.0,48.6,30.51,NNW,339,0.0,0.0,95,0.00,SCT,,0.00,WeatherDisplay:10.37,2013-06-19 05:26:00,
2013-06-19 01:31:00,49.8,48.7,30.51,NNW,340,0.0,0.0,96,0.00,SCT,,0.00,WeatherDisplay:10.37,2013-06-19 05:31:00,
2013-06-19 01:36:00,49.8,48.7,30.51,NNW,339,0.0,0.0,96,0.00,SCT,,0.00,WeatherDisplay:10.37,2013-06-19 05:36:00,
2013-06-19 01:41:00,49.8,48.7,30.51,NNW,339,0.0,0.0,96,0.00,SCT,,0.00,WeatherDisplay:10.37,2013-06-19 05:41:00,
2013-06-19 01:46:00,49.8,48.7,30.51,NNW,340,0.0,0.0,96,0.00,SCT,,0.00,WeatherDisplay:10.37,2013-06-19 05:46:00,
2013-06-19 01:51:00,50.0,49.2,30.51,NNW,340,0.0,0.0,97,0.00,SCT,,0.00,WeatherDisplay:10.37,2013-06-19 05:51:00,
2013-06-19 01:56:00,50.1,49.3,30.51,NNW,340,0.0,0.0,97,0.00,SCT,,0.00,WeatherDisplay:10.37,2013-06-19 05:56:00,
2013-06-19 02:01:00,50.5,49.7,30.51,NNW,339,0.0,0.0,97,0.00,SCT,,0.00,WeatherDisplay:10.37,2013-06-19 06:01:00,
2013-06-19 02:06:00,50.7,49.9,30.51,NNW,340,0.0,0.0,97,0.00,SCT,,0.00,WeatherDisplay:10.37,2013-06-19 06:06:00,
2013-06-19 02:11:00,50.8,50.0,30.51,NNW,340,0.0,0.0,97,0.00,SCT,,0.00,WeatherDisplay:10.37,2013-06-19 06:11:00,
2013-06-19 02:16:00,50.9,50.1,30.51,NNW,340,0.0,0.0,97,0.00,SCT,,0.00,WeatherDisplay:10.37,2013-06-19 06:16:00,
2013-06-19 02:21:00,50.9,50.1,30.51,NNW,339,0.0,0.0,97,0.00,SCT,,0.00,WeatherDisplay:10.37,2013-06-19 06:21:00,
2013-06-19 02:26:00,50.9,50.1,30.52,NNW,340,0.0,0.0,97,0.00,SCT,,0.00,WeatherDisplay:10.37,2013-06-19 06:26:00,
2013-06-19 02:31:00,50.8,50.0,30.52,NNW,340,0.0,0.0,97,0.00,SCT,,0.00,WeatherDisplay:10.37,2013-06-19 06:31:00,
2013-06-19 02:36:00,50.7,49.9,30.52,NNW,339,0.0,0.0,97,0.00,SCT,,0.00,WeatherDisplay:10.37,2013-06-19 06:36:00,
2013-06-19 02:41:00,50.5,49.4,30.52,NNW,340,0.0,0.0,96,0.00,SCT,,0.00,WeatherDisplay:10.37,2013-06-19 06:41:00,
2013-06-19 02:46:00,50.2,49.1,30.52,NNW,339,0.0,0.0,96,0.00,SCT,,0.00,WeatherDisplay:10.37,2013-06-19 06:46:00,
2013-06-19 02:51:00,50.0,48.9,30.52,NNW,340,0.0,0.0,96,0.00,SCT,,0.00,WeatherDisplay:10.37,2013-06-19 06:51:00,
2013-06-19 02:56:00,49.9,49.1,30.52,NNW,340,0.0,0.0,97,0.00,SCT,,0.00,WeatherDisplay:10.37,2013-06-19 06:56:00,
2013-06-19 03:01:00,49.6,48.5,30.52,NNW,339,0.0,0.0,96,0.00,SCT,,0.00,WeatherDisplay:10.37,2013-06-19 07:01:00,
2013-06-19 03:06:00,49.3,48.5,30.53,NNW,339,0.0,0.0,97,0.00,FEW,,0.00,WeatherDisplay:10.37,2013-06-19 07:06:00,
2013-06-19 03:11:00,49.3,48.5,30.53,NNW,339,0.0,0.0,97,0.00,FEW,,0.00,WeatherDisplay:10.37,2013-06-19 07:11:00,
2013-06-19 03:16:00,49.1,48.3,30.53,NNW,339,0.0,0.0,97,0.00,FEW,,0.00,WeatherDisplay:10.37,2013-06-19 07:16:00,
2013-06-19 03:21:00,49.1,48.3,30.53,NNW,340,0.0,0.0,97,0.00,FEW,,0.00,WeatherDisplay:10.37,2013-06-19 07:21:00,
2013-06-19 03:26:00,49.3,48.5,30.53,NW,311,0.0,0.0,97,0.00,FEW,,0.00,WeatherDisplay:10.37,2013-06-19 07:26:00,
2013-06-19 03:31:00,49.4,48.6,30.53,NW,311,1.2,1.2,97,0.00,FEW,,0.00,WeatherDisplay:10.37,2013-06-19 07:31:00,
2013-06-19 03:36:00,49.6,48.2,30.53,NW,311,0.0,0.1,95,0.00,FEW,,0.00,WeatherDisplay:10.37,2013-06-19 07:36:00,
2013-06-19 03:41:00,49.9,48.2,30.54,NW,311,1.2,0.0,94,0.00,FEW,,0.00,WeatherDisplay:10.37,2013-06-19 07:41:00,
2013-06-19 03:46:00,50.3,48.4,30.53,East,87,1.2,0.0,93,0.00,FEW,,0.00,WeatherDisplay:10.37,2013-06-19 07:46:00,
2013-06-19 03:51:00,50.7,48.5,30.53,ENE,75,0.0,0.0,92,0.00,FEW,,0.00,WeatherDisplay:10.37,2013-06-19 07:51:00,
2013-06-19 03:56:00,51.0,48.5,30.53,ENE,75,1.2,0.0,91,0.00,FEW,,0.00,WeatherDisplay:10.37,2013-06-19 07:56:00,
2013-06-19 04:01:00,51.3,48.2,30.54,NNE,30,2.3,2.3,89,0.00,FEW,,0.00,WeatherDisplay:10.37,2013-06-19 08:01:00,
2013-06-19 04:06:00,51.7,48.3,30.53,NE,56,1.2,1.2,88,0.00,FEW,,0.00,WeatherDisplay:10.37,2013-06-19 08:06:00,
2013-06-19 04:11:00,52.0,48.3,30.54,ENE,58,2.3,2.3,87,0.00,FEW,,0.00,WeatherDisplay:10.37,2013-06-19 08:11:00,
2013-06-19 04:16:00,52.1,48.0,30.54,ENE,63,2.3,2.3,86,0.00,FEW,,0.00,WeatherDisplay:10.37,2013-06-19 08:16:00,
2013-06-19 04:21:00,52.1,47.4,30.54,ESE,108,2.3,2.3,84,0.00,FEW,,0.00,WeatherDisplay:10.37,2013-06-19 08:21:00,
2013-06-19 04:26:00,52.1,47.1,30.54,East,101,2.3,2.3,83,0.00,FEW,,0.00,WeatherDisplay:10.37,2013-06-19 08:26:00,
2013-06-19 04:32:00,52.1,46.8,30.54,NE,40,0.0,0.0,82,0.00,FEW,,0.00,WeatherDisplay:10.37,2013-06-19 08:32:00,
2013-06-19 04:37:00,52.0,46.3,30.54,ENE,58,3.5,3.5,81,0.00,FEW,,0.00,WeatherDisplay:10.37,2013-06-19 08:37:00,
2013-06-19 04:42:00,52.1,46.1,30.54,NW,323,2.3,0.0,80,0.00,FEW,,0.00,WeatherDisplay:10.37,2013-06-19 08:42:00,
2013-06-19 04:47:00,51.9,45.9,30.55,SE,136,1.2,1.2,80,0.00,FEW,,0.00,WeatherDisplay:10.37,2013-06-19 08:47:00,
2013-06-19 04:52:00,51.8,46.2,30.55,ESE,122,1.2,0.0,81,0.00,FEW,,0.00,WeatherDisplay:10.37,2013-06-19 08:52:00,
2013-06-19 04:57:00,51.5,45.5,30.55,SSE,160,0.0,0.2,80,0.00,FEW,,0.00,WeatherDisplay:10.37,2013-06-19 08:57:00,
2013-06-19 05:02:00,51.3,45.7,30.55,NW,319,1.2,1.2,81,0.00,CLR,,0.00,WeatherDisplay:10.37,2013-06-19 09:02:00,
2013-06-19 05:07:00,51.0,45.4,30.55,NW,325,1.2,0.0,81,0.00,CLR,,0.00,WeatherDisplay:10.37,2013-06-19 09:07:00,
2013-06-19 05:12:00,50.8,45.5,30.55,NW,325,0.0,0.0,82,0.00,CLR,,0.00,WeatherDisplay:10.37,2013-06-19 09:12:00,
2013-06-19 05:17:00,50.8,45.5,30.55,NW,319,2.3,2.3,82,0.00,CLR,,0.00,WeatherDisplay:10.37,2013-06-19 09:17:00,
2013-06-19 05:22:00,50.8,45.5,30.55,NW,320,1.2,1.2,82,0.00,CLR,,0.00,WeatherDisplay:10.37,2013-06-19 09:22:00,
2013-06-19 05:27:00,50.8,44.9,30.56,NW,311,1.2,1.2,80,0.00,CLR,,0.00,WeatherDisplay:10.37,2013-06-19 09:27:00,
2013-06-19 05:32:00,50.7,45.1,30.56,NW,311,0.0,0.0,81,0.00,CLR,,0.00,WeatherDisplay:10.37,2013-06-19 09:32:00,
2013-06-19 05:37:00,50.5,44.9,30.56,NE,37,1.0,1.0,81,0.00,CLR,,0.00,WeatherDisplay:10.37,2013-06-19 09:37:00,
2013-06-19 05:42:00,50.5,44.9,30.56,North,352,0.0,0.0,81,0.00,CLR,,0.00,WeatherDisplay:10.37,2013-06-19 09:42:00,
2013-06-19 05:47:00,50.2,44.6,30.56,North,352,1.2,1.2,81,0.00,CLR,,0.00,WeatherDisplay:10.37,2013-06-19 09:47:00,
2013-06-19 05:52:00,50.1,44.5,30.57,SSE,163,0.0,0.0,81,0.00,CLR,,0.00,WeatherDisplay:10.37,2013-06-19 09:52:00,
2013-06-19 05:57:00,50.0,44.7,30.57,West,272,0.0,0.0,82,0.00,CLR,,0.00,WeatherDisplay:10.37,2013-06-19 09:57:00,
2013-06-19 06:02:00,49.8,44.2,30.57,West,272,0.0,0.0,81,0.00,FEW,,0.00,WeatherDisplay:10.37,2013-06-19 10:02:00,
2013-06-19 06:07:00,50.2,44.6,30.57,West,272,1.2,0.0,81,0.00,FEW,,0.00,WeatherDisplay:10.37,2013-06-19 10:07:00,
2013-06-19 06:12:00,51.1,45.1,30.57,West,271,0.0,0.0,80,0.00,FEW,,0.00,WeatherDisplay:10.37,2013-06-19 10:12:00,
2013-06-19 06:17:00,52.0,45.7,30.58,West,271,0.0,0.0,79,0.00,FEW,,0.00,WeatherDisplay:10.37,2013-06-19 10:17:00,
2013-06-19 06:22:00,52.2,45.9,30.58,West,271,0.0,0.0,79,0.00,FEW,,0.00,WeatherDisplay:10.37,2013-06-19 10:22:00,
2013-06-19 06:27:00,52.4,46.7,30.58,West,272,0.0,0.0,81,0.00,FEW,,0.00,WeatherDisplay:10.37,2013-06-19 10:27:00,
2013-06-19 06:32:00,52.6,46.6,30.58,West,271,0.0,0.0,80,0.00,FEW,,0.00,WeatherDisplay:10.37,2013-06-19 10:32:00,
2013-06-19 06:37:00,52.8,47.5,30.58,West,272,0.0,0.0,82,0.00,FEW,,0.00,WeatherDisplay:10.37,2013-06-19 10:37:00,
2013-06-19 06:42:00,53.4,48.7,30.58,West,271,0.0,0.0,84,0.00,FEW,,0.00,WeatherDisplay:10.37,2013-06-19 10:42:00,
2013-06-19 06:47:00,54.6,49.2,30.59,West,272,0.0,0.0,82,0.00,FEW,,0.00,WeatherDisplay:10.37,2013-06-19 10:47:00,
2013-06-19 06:52:00,55.5,48.8,30.59,West,272,0.0,0.0,78,0.00,FEW,,0.00,WeatherDisplay:10.37,2013-06-19 10:52:00,
2013-06-19 06:57:00,56.4,49.6,30.59,West,271,0.0,0.0,78,0.00,FEW,,0.00,WeatherDisplay:10.37,2013-06-19 10:57:00,
2013-06-19 07:02:00,56.8,49.3,30.59,West,272,0.0,0.0,76,0.00,FEW,,0.00,WeatherDisplay:10.37,2013-06-19 11:02:00,
2013-06-19 07:07:00,56.8,49.7,30.59,West,272,0.0,0.0,77,0.00,FEW,,0.00,WeatherDisplay:10.37,2013-06-19 11:07:00,
2013-06-19 07:12:00,56.8,50.0,30.59,West,271,0.0,0.0,78,0.00,FEW,,0.00,WeatherDisplay:10.37,2013-06-19 11:12:00,
2013-06-19 07:17:00,57.0,49.5,30.59,West,272,0.0,0.0,76,0.00,FEW,,0.00,WeatherDisplay:10.37,2013-06-19 11:17:00,
2013-06-19 07:22:00,57.5,48.2,30.60,West,272,0.0,0.0,71,0.00,FEW,,0.00,WeatherDisplay:10.37,2013-06-19 11:22:00,
2013-06-19 07:27:00,57.4,48.4,30.60,West,272,0.0,0.0,72,0.00,FEW,,0.00,WeatherDisplay:10.37,2013-06-19 11:27:00,
2013-06-19 07:32:00,57.5,48.9,30.60,West,272,0.0,0.0,73,0.00,FEW,,0.00,WeatherDisplay:10.37,2013-06-19 11:32:00,
2013-06-19 07:37:00,58.0,48.6,30.60,NW,324,1.2,0.0,71,0.00,FEW,,0.00,WeatherDisplay:10.37,2013-06-19 11:37:00,
2013-06-19 07:42:00,58.2,49.2,30.60,NW,324,0.0,0.0,72,0.00,FEW,,0.00,WeatherDisplay:10.37,2013-06-19 11:42:00,
2013-06-19 07:47:00,59.0,48.1,30.60,NW,325,1.2,1.2,67,0.00,FEW,,0.00,WeatherDisplay:10.37,2013-06-19 11:47:00,
2013-06-19 07:52:00,59.0,47.7,30.60,NNE,21,2.0,2.0,66,0.00,FEW,,0.00,WeatherDisplay:10.37,2013-06-19 11:52:00,
2013-06-19 07:57:00,59.3,49.5,30.60,NNW,340,1.2,0.0,70,0.00,FEW,,0.00,WeatherDisplay:10.37,2013-06-19 11:57:00,
2013-06-19 08:02:00,59.7,49.1,30.60,ENE,59,1.2,0.0,68,0.00,FEW,,0.00,WeatherDisplay:10.37,2013-06-19 12:02:00,
2013-06-19 08:07:00,59.9,48.9,30.60,NNW,343,2.3,2.3,67,0.00,FEW,,0.00,WeatherDisplay:10.37,2013-06-19 12:07:00,
2013-06-19 08:12:00,59.9,48.1,30.61,ENE,57,3.5,3.5,65,0.00,FEW,,0.00,WeatherDisplay:10.37,2013-06-19 12:12:00,
2013-06-19 08:17:00,60.3,47.6,30.61,NNE,23,2.3,2.3,63,0.00,FEW,,0.00,WeatherDisplay:10.37,2013-06-19 12:17:00,
2013-06-19 08:22:00,60.6,48.4,30.61,NW,308,1.2,1.2,64,0.00,FEW,,0.00,WeatherDisplay:10.37,2013-06-19 12:22:00,
2013-06-19 08:27:00,61.0,48.3,30.61,East,82,2.3,2.3,63,0.00,FEW,,0.00,WeatherDisplay:10.37,2013-06-19 12:27:00,
2013-06-19 08:32:00,60.8,48.1,30.62,NE,47,3.0,3.0,63,0.00,FEW,,0.00,WeatherDisplay:10.37,2013-06-19 12:32:00,
2013-06-19 08:37:00,60.8,48.5,30.62,NNE,32,2.3,2.3,64,0.00,FEW,,0.00,WeatherDisplay:10.37,2013-06-19 12:37:00,
2013-06-19 08:42:00,61.3,47.7,30.62,NNE,13,2.3,2.3,61,0.00,FEW,,0.00,WeatherDisplay:10.37,2013-06-19 12:42:00,
2013-06-19 08:47:00,61.3,48.2,30.62,East,87,3.5,3.5,62,0.00,FEW,,0.00,WeatherDisplay:10.37,2013-06-19 12:47:00,
2013-06-19 08:52:00,61.3,46.8,30.62,ENE,61,4.0,4.0,59,0.00,FEW,,0.00,WeatherDisplay:10.37,2013-06-19 12:52:00,
2013-06-19 08:57:00,60.9,47.8,30.62,NW,309,1.2,1.2,62,0.00,FEW,,0.00,WeatherDisplay:10.37,2013-06-19 12:57:00,
2013-06-19 09:02:00,61.1,47.5,30.62,ENE,58,3.0,3.0,61,0.00,CLR,,0.00,WeatherDisplay:10.37,2013-06-19 13:02:00,
2013-06-19 09:07:00,61.3,50.6,30.62,NW,314,2.3,2.3,68,0.00,CLR,,0.00,WeatherDisplay:10.37,2013-06-19 13:07:00,
2013-06-19 09:12:00,61.4,47.8,30.63,NW,324,2.3,2.3,61,0.00,CLR,,0.00,WeatherDisplay:10.37,2013-06-19 13:12:00,
2013-06-19 09:17:00,61.6,48.0,30.63,North,1,2.3,2.3,61,0.00,CLR,,0.00,WeatherDisplay:10.37,2013-06-19 13:17:00,
2013-06-19 09:22:00,61.9,47.9,30.63,NE,39,1.2,1.2,60,0.00,CLR,,0.00,WeatherDisplay:10.37,2013-06-19 13:22:00,
2013-06-19 09:27:00,61.6,47.6,30.63,NNW,344,3.5,3.5,60,0.00,CLR,,0.00,WeatherDisplay:10.37,2013-06-19 13:27:00,
2013-06-19 09:32:00,61.7,46.8,30.63,NNE,15,3.5,3.5,58,0.00,CLR,,0.00,WeatherDisplay:10.37,2013-06-19 13:32:00,
2013-06-19 09:37:00,61.5,49.2,30.63,NE,44,2.3,2.3,64,0.00,CLR,,0.00,WeatherDisplay:10.37,2013-06-19 13:37:00,
2013-06-19 09:42:00,61.7,48.5,30.63,West,276,2.3,2.3,62,0.00,CLR,,0.00,WeatherDisplay:10.37,2013-06-19 13:42:00,
2013-06-19 09:47:00,62.0,49.7,30.63,NW,324,2.3,2.3,64,0.00,CLR,,0.00,WeatherDisplay:10.37,2013-06-19 13:47:00,
2013-06-19 09:52:00,61.8,48.2,30.63,NE,56,3.5,3.5,61,0.00,CLR,,0.00,WeatherDisplay:10.37,2013-06-19 13:52:00,
2013-06-19 09:57:00,61.9,49.2,30.63,NNW,343,3.5,3.5,63,0.00,CLR,,0.00,WeatherDisplay:10.37,2013-06-19 13:57:00,
2013-06-19 10:02:00,62.1,49.8,30.63,NW,312,1.2,1.2,64,0.00,CLR,,0.00,WeatherDisplay:10.37,2013-06-19 14:02:00,
2013-06-19 10:07:00,62.6,49.0,30.63,ENE,58,3.5,3.5,61,0.00,CLR,,0.00,WeatherDisplay:10.37,2013-06-19 14:07:00,
2013-06-19 10:12:00,62.4,47.9,30.64,ESE,109,3.5,3.5,59,0.00,CLR,,0.00,WeatherDisplay:10.37,2013-06-19 14:12:00,
2013-06-19 10:17:00,62.3,49.5,30.64,NW,326,3.5,3.5,63,0.00,CLR,,0.00,WeatherDisplay:10.37,2013-06-19 14:17:00,
2013-06-19 10:22:00,62.5,47.5,30.64,North,8,3.5,3.5,58,0.00,CLR,,0.00,WeatherDisplay:10.37,2013-06-19 14:22:00,
2013-06-19 10:27:00,62.6,49.8,30.64,ENE,61,3.5,3.5,63,0.00,CLR,,0.00,WeatherDisplay:10.37,2013-06-19 14:27:00,
2013-06-19 10:32:00,62.3,47.3,30.64,NE,35,4.6,4.6,58,0.00,CLR,,0.00,WeatherDisplay:10.37,2013-06-19 14:32:00,
2013-06-19 10:37:00,62.5,49.3,30.64,SE,144,3.5,3.5,62,0.00,CLR,,0.00,WeatherDisplay:10.37,2013-06-19 14:37:00,
2013-06-19 10:42:00,62.7,49.1,30.64,NNE,12,3.5,3.5,61,0.00,CLR,,0.00,WeatherDisplay:10.37,2013-06-19 14:42:00,
2013-06-19 10:47:00,62.6,48.5,30.64,East,92,3.5,3.5,60,0.00,CLR,,0.00,WeatherDisplay:10.37,2013-06-19 14:47:00,
2013-06-19 10:52:00,62.5,48.0,30.64,North,351,2.3,2.3,59,0.00,CLR,,0.00,WeatherDisplay:10.37,2013-06-19 14:52:00,
2013-06-19 10:57:00,62.6,48.1,30.64,NNW,339,1.2,0.0,59,0.00,CLR,,0.00,WeatherDisplay:10.37,2013-06-19 14:57:00,
2013-06-19 11:02:00,63.1,49.4,30.64,ENE,62,5.0,5.0,61,0.00,FEW,,0.00,WeatherDisplay:10.37,2013-06-19 15:02:00,
2013-06-19 11:07:00,63.2,50.4,30.64,ENE,78,3.5,3.5,63,0.00,FEW,,0.00,WeatherDisplay:10.37,2013-06-19 15:07:00,
2013-06-19 11:12:00,62.9,51.4,30.64,NW,309,3.5,3.5,66,0.00,FEW,,0.00,WeatherDisplay:10.37,2013-06-19 15:12:00,
2013-06-19 11:17:00,63.4,51.8,30.64,WNW,296,3.5,3.5,66,0.00,FEW,,0.00,WeatherDisplay:10.37,2013-06-19 15:17:00,
2013-06-19 11:22:00,63.2,49.1,30.64,NW,308,4.6,4.6,60,0.00,FEW,,0.00,WeatherDisplay:10.37,2013-06-19 15:22:00,
2013-06-19 11:27:00,63.4,49.3,30.65,East,88,3.5,3.5,60,0.00,FEW,,0.00,WeatherDisplay:10.37,2013-06-19 15:27:00,
2013-06-19 11:32:00,63.5,49.8,30.65,NW,314,2.3,2.3,61,0.00,FEW,,0.00,WeatherDisplay:10.37,2013-06-19 15:32:00,
2013-06-19 11:37:00,63.6,50.8,30.65,East,84,3.0,3.0,63,0.00,FEW,,0.00,WeatherDisplay:10.37,2013-06-19 15:37:00,
2013-06-19 11:42:00,63.8,50.5,30.65,NNW,340,2.3,2.3,62,0.00,FEW,,0.00,WeatherDisplay:10.37,2013-06-19 15:42:00,
2013-06-19 11:47:00,63.8,51.0,30.65,ENE,61,3.5,3.5,63,0.00,FEW,,0.00,WeatherDisplay:10.37,2013-06-19 15:47:00,
2013-06-19 11:52:00,63.5,47.0,30.65,NNW,342,5.8,5.8,55,0.00,FEW,,0.00,WeatherDisplay:10.37,2013-06-19 15:52:00,
2013-06-19 11:57:00,63.4,49.3,30.65,East,99,3.5,3.5,60,0.00,FEW,,0.00,WeatherDisplay:10.37,2013-06-19 15:57:00,
2013-06-19 12:02:00,63.9,49.3,30.65,East,97,2.3,2.3,59,0.00,FEW,,0.00,WeatherDisplay:10.37,2013-06-19 16:02:00,
2013-06-19 12:07:00,64.0,48.9,30.65,ENE,60,3.5,3.5,58,0.00,FEW,,0.00,WeatherDisplay:10.37,2013-06-19 16:07:00,
2013-06-19 12:12:00,63.8,46.8,30.65,ENE,63,3.5,3.5,54,0.00,FEW,,0.00,WeatherDisplay:10.37,2013-06-19 16:12:00,
2013-06-19 12:17:00,63.5,46.6,30.65,ENE,70,3.5,3.5,54,0.00,FEW,,0.00,WeatherDisplay:10.37,2013-06-19 16:17:00,
2013-06-19 12:22:00,63.5,48.9,30.65,NW,312,3.5,3.5,59,0.00,FEW,,0.00,WeatherDisplay:10.37,2013-06-19 16:22:00,
2013-06-19 12:27:00,63.6,46.1,30.65,East,87,3.5,3.5,53,0.00,FEW,,0.00,WeatherDisplay:10.37,2013-06-19 16:27:00,
2013-06-19 12:32:00,63.7,45.7,30.65,WNW,292,3.5,3.5,52,0.00,FEW,,0.00,WeatherDisplay:10.37,2013-06-19 16:32:00,
2013-06-19 12:37:00,64.2,49.6,30.65,NE,42,3.5,3.5,59,0.00,FEW,,0.00,WeatherDisplay:10.37,2013-06-19 16:37:00,
2013-06-19 12:42:00,64.5,47.0,30.65,NNE,13,3.5,3.5,53,0.00,FEW,,0.00,WeatherDisplay:10.37,2013-06-19 16:42:00,
2013-06-19 12:47:00,64.7,46.1,30.65,NNW,338,3.5,3.5,51,0.00,FEW,,0.00,WeatherDisplay:10.37,2013-06-19 16:47:00,
2013-06-19 12:52:00,64.3,46.8,30.65,NNE,30,3.5,3.5,53,0.00,FEW,,0.00,WeatherDisplay:10.37,2013-06-19 16:52:00,
2013-06-19 12:57:00,64.3,45.3,30.65,North,7,3.5,3.5,50,0.00,FEW,,0.00,WeatherDisplay:10.37,2013-06-19 16:57:00,
2013-06-19 13:02:00,64.5,47.5,30.65,WNW,302,3.5,3.5,54,0.00,FEW,,0.00,WeatherDisplay:10.37,2013-06-19 17:02:00,
2013-06-19 13:07:00,64.4,46.4,30.65,NW,309,2.3,2.3,52,0.00,FEW,,0.00,WeatherDisplay:10.37,2013-06-19 17:07:00,
2013-06-19 13:12:00,64.5,45.4,30.65,NNW,327,3.5,3.5,50,0.00,FEW,,0.00,WeatherDisplay:10.37,2013-06-19 17:12:00,
2013-06-19 13:17:00,64.4,45.9,30.65,NE,47,4.0,4.0,51,0.00,FEW,,0.00,WeatherDisplay:10.37,2013-06-19 17:17:00,
2013-06-19 13:22:00,64.7,48.2,30.65,NW,314,3.5,3.5,55,0.00,FEW,,0.00,WeatherDisplay:10.37,2013-06-19 17:22:00,
2013-06-19 13:27:00,64.9,45.3,30.65,North,10,5.8,5.8,49,0.00,FEW,,0.00,WeatherDisplay:10.37,2013-06-19 17:27:00,
2013-06-19 13:32:00,64.7,43.4,30.65,WNW,288,8.0,8.0,46,0.00,FEW,,0.00,WeatherDisplay:10.37,2013-06-19 17:32:00,
2013-06-19 13:37:00,64.6,46.6,30.65,NE,42,3.5,3.5,52,0.00,FEW,,0.00,WeatherDisplay:10.37,2013-06-19 17:37:00,
2013-06-19 13:42:00,65.4,48.8,30.65,NW,320,1.2,1.2,55,0.00,FEW,,0.00,WeatherDisplay:10.37,2013-06-19 17:42:00,
2013-06-19 13:47:00,64.8,45.7,30.64,NW,319,6.0,6.0,50,0.00,FEW,,0.00,WeatherDisplay:10.37,2013-06-19 17:47:00,
2013-06-19 13:52:00,64.5,44.9,30.64,NNE,24,4.6,4.6,49,0.00,FEW,,0.00,WeatherDisplay:10.37,2013-06-19 17:52:00,
2013-06-19 13:57:00,64.4,47.4,30.64,West,279,2.3,2.3,54,0.00,FEW,,0.00,WeatherDisplay:10.37,2013-06-19 17:57:00,
2013-06-19 14:02:00,64.6,45.0,30.64,North,4,2.3,0.0,49,0.00,FEW,,0.00,WeatherDisplay:10.37,2013-06-19 18:02:00,
2013-06-19 14:07:00,65.0,43.7,30.64,East,85,5.8,5.8,46,0.00,FEW,,0.00,WeatherDisplay:10.37,2013-06-19 18:07:00,
2013-06-19 14:12:00,65.1,44.4,30.64,NW,324,4.6,4.6,47,0.00,FEW,,0.00,WeatherDisplay:10.37,2013-06-19 18:12:00,
2013-06-19 14:17:00,65.2,47.1,30.65,WNW,289,3.5,3.5,52,0.00,FEW,,0.00,WeatherDisplay:10.37,2013-06-19 18:17:00,
2013-06-19 14:22:00,64.5,43.3,30.65,WNW,289,4.6,4.6,46,0.00,FEW,,0.00,WeatherDisplay:10.37,2013-06-19 18:22:00,
2013-06-19 14:27:00,64.2,43.0,30.65,NNE,21,2.3,2.3,46,0.00,FEW,,0.00,WeatherDisplay:10.37,2013-06-19 18:27:00,
2013-06-19 14:32:00,65.0,44.3,30.65,NE,51,3.5,3.5,47,0.00,FEW,,0.00,WeatherDisplay:10.37,2013-06-19 18:32:00,
2013-06-19 14:37:00,65.0,46.4,30.65,North,350,3.5,3.5,51,0.00,FEW,,0.00,WeatherDisplay:10.37,2013-06-19 18:37:00,
2013-06-19 14:42:00,65.1,43.2,30.65,SE,146,3.5,3.5,45,0.00,FEW,,0.00,WeatherDisplay:10.37,2013-06-19 18:42:00,
2013-06-19 14:48:00,64.7,42.3,30.65,North,4,2.3,2.5,44,0.00,FEW,,0.00,WeatherDisplay:10.37,2013-06-19 18:48:00,
2013-06-19 14:53:00,64.8,47.3,30.65,NW,326,3.5,3.5,53,0.00,FEW,,0.00,WeatherDisplay:10.37,2013-06-19 18:53:00,
2013-06-19 14:58:00,65.2,43.9,30.65,NNW,334,3.5,3.5,46,0.00,FEW,,0.00,WeatherDisplay:10.37,2013-06-19 18:58:00,
2013-06-19 15:03:00,65.4,46.3,30.65,WNW,302,3.5,3.5,50,0.00,FEW,,0.00,WeatherDisplay:10.37,2013-06-19 19:03:00,
2013-06-19 15:08:00,65.1,42.6,30.64,WNW,295,6.9,6.9,44,0.00,FEW,,0.00,WeatherDisplay:10.37,2013-06-19 19:08:00,
2013-06-19 15:13:00,64.8,44.6,30.65,NW,316,3.5,3.5,48,0.00,FEW,,0.00,WeatherDisplay:10.37,2013-06-19 19:13:00,
2013-06-19 15:18:00,65.4,42.3,30.65,NNW,329,3.5,0.0,43,0.00,FEW,,0.00,WeatherDisplay:10.37,2013-06-19 19:18:00,
2013-06-19 15:23:00,65.4,39.8,30.65,NW,310,2.3,2.3,39,0.00,FEW,,0.00,WeatherDisplay:10.37,2013-06-19 19:23:00,
2013-06-19 15:28:00,65.8,41.4,30.64,NW,322,5.8,5.8,41,0.00,FEW,,0.00,WeatherDisplay:10.37,2013-06-19 19:28:00,
2013-06-19 15:33:00,65.9,42.1,30.64,NE,56,3.5,3.5,42,0.00,FEW,,0.00,WeatherDisplay:10.37,2013-06-19 19:33:00,
2013-06-19 15:38:00,65.6,45.4,30.64,NW,317,4.6,4.6,48,0.00,FEW,,0.00,WeatherDisplay:10.37,2013-06-19 19:38:00,
2013-06-19 15:43:00,65.3,41.6,30.64,NW,314,2.3,2.3,42,0.00,FEW,,0.00,WeatherDisplay:10.37,2013-06-19 19:43:00,
2013-06-19 15:48:00,65.6,46.5,30.64,NW,316,2.3,2.3,50,0.00,FEW,,0.00,WeatherDisplay:10.37,2013-06-19 19:48:00,
2013-06-19 15:53:00,66.2,46.5,30.64,North,350,2.3,2.3,49,0.00,FEW,,0.00,WeatherDisplay:10.37,2013-06-19 19:53:00,
2013-06-19 15:58:00,66.2,44.8,30.63,NNE,12,2.3,2.3,46,0.00,FEW,,0.00,WeatherDisplay:10.37,2013-06-19 19:58:00,
2013-06-19 16:03:00,66.2,42.4,30.63,North,11,3.5,3.5,42,0.00,FEW,,0.00,WeatherDisplay:10.37,2013-06-19 20:03:00,
2013-06-19 16:08:00,65.9,42.8,30.64,WNW,293,1.2,1.2,43,0.00,FEW,,0.00,WeatherDisplay:10.37,2013-06-19 20:08:00,
2013-06-19 16:13:00,65.7,41.3,30.63,WNW,288,3.5,3.5,41,0.00,FEW,,0.00,WeatherDisplay:10.37,2013-06-19 20:13:00,
2013-06-19 16:18:00,65.7,40.1,30.63,WSW,248,3.5,3.5,39,0.00,FEW,,0.00,WeatherDisplay:10.37,2013-06-19 20:18:00,
2013-06-19 16:23:00,66.0,42.9,30.63,NW,321,2.0,2.0,43,0.00,FEW,,0.00,WeatherDisplay:10.37,2013-06-19 20:23:00,
2013-06-19 16:28:00,65.9,38.9,30.63,NE,47,5.8,5.8,37,0.00,FEW,,0.00,WeatherDisplay:10.37,2013-06-19 20:28:00,
2013-06-19 16:33:00,65.4,37.7,30.63,SSE,160,1.2,1.2,36,0.00,FEW,,0.00,WeatherDisplay:10.37,2013-06-19 20:33:00,
2013-06-19 16:38:00,66.0,41.0,30.63,South,189,0.0,0.0,40,0.00,FEW,,0.00,WeatherDisplay:10.37,2013-06-19 20:38:00,
2013-06-19 16:43:00,66.3,40.6,30.63,North,357,0.0,0.0,39,0.00,FEW,,0.00,WeatherDisplay:10.37,2013-06-19 20:43:00,
2013-06-19 16:48:00,66.2,38.4,30.63,NW,304,3.5,3.5,36,0.00,FEW,,0.00,WeatherDisplay:10.37,2013-06-19 20:48:00,
2013-06-19 16:53:00,66.3,43.1,30.63,ESE,106,2.3,2.3,43,0.00,FEW,,0.00,WeatherDisplay:10.37,2013-06-19 20:53:00,
2013-06-19 16:58:00,66.6,38.1,30.63,NNW,330,1.2,1.2,35,0.00,FEW,,0.00,WeatherDisplay:10.37,2013-06-19 20:58:00,
2013-06-19 17:03:00,66.9,39.8,30.63,NNW,334,2.3,2.3,37,0.00,FEW,,0.00,WeatherDisplay:10.37,2013-06-19 21:03:00,
2013-06-19 17:08:00,66.7,37.4,30.63,North,354,2.3,2.3,34,0.00,FEW,,0.00,WeatherDisplay:10.37,2013-06-19 21:08:00,
2013-06-19 17:13:00,67.0,43.8,30.63,ESE,119,2.3,2.3,43,0.00,FEW,,0.00,WeatherDisplay:10.37,2013-06-19 21:13:00,
2013-06-19 17:18:00,66.7,41.6,30.62,West,281,3.5,3.5,40,0.00,FEW,,0.00,WeatherDisplay:10.37,2013-06-19 21:18:00,
2013-06-19 17:23:00,66.7,43.5,30.62,ENE,64,3.5,3.5,43,0.00,FEW,,0.00,WeatherDisplay:10.37,2013-06-19 21:23:00,
2013-06-19 17:28:00,66.6,42.2,30.62,WSW,241,2.3,2.3,41,0.00,FEW,,0.00,WeatherDisplay:10.37,2013-06-19 21:28:00,
2013-06-19 17:33:00,66.1,38.4,30.62,NW,305,4.6,4.6,36,0.00,FEW,,0.00,WeatherDisplay:10.37,2013-06-19 21:33:00,
2013-06-19 17:38:00,65.9,40.2,30.63,WNW,283,3.5,3.5,39,0.00,FEW,,0.00,WeatherDisplay:10.37,2013-06-19 21:38:00,
2013-06-19 17:43:00,66.4,41.3,30.62,NW,321,4.0,4.0,40,0.00,FEW,,0.00,WeatherDisplay:10.37,2013-06-19 21:43:00,
2013-06-19 17:48:00,66.9,39.8,30.62,NW,306,2.3,2.3,37,0.00,FEW,,0.00,WeatherDisplay:10.37,2013-06-19 21:48:00,
2013-06-19 17:53:00,66.8,40.4,30.62,ENE,77,1.2,0.0,38,0.00,FEW,,0.00,WeatherDisplay:10.37,2013-06-19 21:53:00,
2013-06-19 17:58:00,67.1,40.6,30.62,NW,317,2.3,2.3,38,0.00,FEW,,0.00,WeatherDisplay:10.37,2013-06-19 21:58:00,
2013-06-19 18:03:00,67.1,40.6,30.63,North,351,2.3,2.3,38,0.00,FEW,,0.00,WeatherDisplay:10.37,2013-06-19 22:03:00,
2013-06-19 18:08:00,67.2,40.7,30.63,NNW,333,1.2,1.2,38,0.00,FEW,,0.00,WeatherDisplay:10.37,2013-06-19 22:08:00,
2013-06-19 18:13:00,67.3,40.8,30.63,NNE,23,2.3,2.3,38,0.00,FEW,,0.00,WeatherDisplay:10.37,2013-06-19 22:13:00,
2013-06-19 18:18:00,67.0,42.5,30.63,NW,318,3.5,3.5,41,0.00,FEW,,0.00,WeatherDisplay:10.37,2013-06-19 22:18:00,
2013-06-19 18:23:00,66.7,39.6,30.63,East,98,3.5,3.5,37,0.00,FEW,,0.00,WeatherDisplay:10.37,2013-06-19 22:23:00,
2013-06-19 18:28:00,67.0,42.5,30.63,NNE,30,2.3,2.3,41,0.00,FEW,,0.00,WeatherDisplay:10.37,2013-06-19 22:28:00,
2013-06-19 18:33:00,66.6,40.9,30.63,NE,43,0.0,0.0,39,0.00,FEW,,0.00,WeatherDisplay:10.37,2013-06-19 22:33:00,
2013-06-19 18:38:00,66.3,41.9,30.63,East,85,2.3,2.3,41,0.00,FEW,,0.00,WeatherDisplay:10.37,2013-06-19 22:38:00,
2013-06-19 18:43:00,66.1,42.3,30.63,ESE,102,3.0,3.0,42,0.00,FEW,,0.00,WeatherDisplay:10.37,2013-06-19 22:43:00,
2013-06-19 18:48:00,66.0,42.2,30.62,North,350,1.2,1.2,42,0.00,FEW,,0.00,WeatherDisplay:10.37,2013-06-19 22:48:00,
2013-06-19 18:53:00,65.8,39.5,30.63,ESE,111,2.3,2.3,38,0.00,FEW,,0.00,WeatherDisplay:10.37,2013-06-19 22:53:00,
2013-06-19 18:58:00,65.8,43.9,30.62,East,95,1.2,0.0,45,0.00,FEW,,0.00,WeatherDisplay:10.37,2013-06-19 22:58:00,
2013-06-19 19:03:00,65.9,42.8,30.62,NW,315,1.0,1.0,43,0.00,CLR,,0.00,WeatherDisplay:10.37,2013-06-19 23:03:00,
2013-06-19 19:08:00,65.8,43.9,30.62,NNW,348,0.0,0.0,45,0.00,CLR,,0.00,WeatherDisplay:10.37,2013-06-19 23:08:00,
2013-06-19 19:13:00,66.2,43.0,30.63,NNE,16,2.3,2.3,43,0.00,CLR,,0.00,WeatherDisplay:10.37,2013-06-19 23:13:00,
2013-06-19 19:18:00,66.2,43.0,30.62,NW,324,1.2,0.0,43,0.00,CLR,,0.00,WeatherDisplay:10.37,2013-06-19 23:18:00,
2013-06-19 19:23:00,65.9,40.9,30.62,NNE,31,2.3,2.3,40,0.00,CLR,,0.00,WeatherDisplay:10.37,2013-06-19 23:23:00,
2013-06-19 19:28:00,65.3,41.0,30.63,ESE,106,1.2,1.2,41,0.00,CLR,,0.00,WeatherDisplay:10.37,2013-06-19 23:28:00,
2013-06-19 19:33:00,65.6,42.5,30.63,ESE,106,1.2,0.0,43,0.00,CLR,,0.00,WeatherDisplay:10.37,2013-06-19 23:33:00,
2013-06-19 19:38:00,65.8,43.9,30.63,West,272,1.2,1.2,45,0.00,CLR,,0.00,WeatherDisplay:10.37,2013-06-19 23:38:00,
2013-06-19 19:43:00,65.8,43.9,30.63,West,272,0.0,0.0,45,0.00,CLR,,0.00,WeatherDisplay:10.37,2013-06-19 23:43:00,
2013-06-19 19:48:00,65.8,46.1,30.63,West,272,0.0,0.0,49,0.00,CLR,,0.00,WeatherDisplay:10.37,2013-06-19 23:48:00,
2013-06-19 19:53:00,65.4,42.9,30.63,West,272,0.0,0.0,44,0.00,CLR,,0.00,WeatherDisplay:10.37,2013-06-19 23:53:00,
2013-06-19 19:58:00,64.9,45.8,30.63,West,272,0.0,0.0,50,0.00,CLR,,0.00,WeatherDisplay:10.37,2013-06-19 23:58:00,
2013-06-19 20:03:00,65.2,47.1,30.63,West,272,0.0,0.0,52,0.00,CLR,,0.00,WeatherDisplay:10.37,2013-06-20 00:03:00,
2013-06-19 20:08:00,65.5,46.9,30.63,West,272,0.0,0.0,51,0.00,CLR,,0.00,WeatherDisplay:10.37,2013-06-20 00:08:00,
2013-06-19 20:13:00,66.0,45.7,30.64,West,272,0.0,0.0,48,0.00,CLR,,0.00,WeatherDisplay:10.37,2013-06-20 00:13:00,
2013-06-19 20:18:00,64.8,49.7,30.64,West,272,0.0,0.0,58,0.00,CLR,,0.00,WeatherDisplay:10.37,2013-06-20 00:18:00,
2013-06-19 20:23:00,62.9,47.9,30.63,West,272,0.0,0.0,58,0.00,CLR,,0.00,WeatherDisplay:10.37,2013-06-20 00:23:00,
2013-06-19 20:28:00,61.2,47.2,30.63,West,272,0.0,0.0,60,0.00,CLR,,0.00,WeatherDisplay:10.37,2013-06-20 00:28:00,
2013-06-19 20:33:00,60.1,46.6,30.64,West,272,0.0,0.0,61,0.00,CLR,,0.00,WeatherDisplay:10.37,2013-06-20 00:33:00,
2013-06-19 20:38:00,59.2,50.2,30.64,West,272,0.0,0.0,72,0.00,CLR,,0.00,WeatherDisplay:10.37,2013-06-20 00:38:00,
2013-06-19 20:43:00,57.9,47.8,30.64,West,272,0.0,0.0,69,0.00,CLR,,0.00,WeatherDisplay:10.37,2013-06-20 00:43:00,
2013-06-19 20:48:00,57.0,49.2,30.64,West,272,0.0,0.0,75,0.00,CLR,,0.00,WeatherDisplay:10.37,2013-06-20 00:48:00,
2013-06-19 20:53:00,56.1,49.3,30.63,West,272,0.0,0.0,78,0.00,CLR,,0.00,WeatherDisplay:10.37,2013-06-20 00:53:00,
2013-06-19 20:58:00,55.4,49.3,30.63,West,272,0.0,0.0,80,0.00,CLR,,0.00,WeatherDisplay:10.37,2013-06-20 00:58:00,
2013-06-19 21:03:00,54.9,49.2,30.63,West,272,0.0,0.0,81,0.00,CLR,,0.00,WeatherDisplay:10.37,2013-06-20 01:03:00,
2013-06-19 21:08:00,54.3,48.3,30.63,West,272,0.0,0.0,80,0.00,CLR,,0.00,WeatherDisplay:10.37,2013-06-20 01:08:00,
2013-06-19 21:13:00,53.6,48.2,30.63,West,272,0.0,0.0,82,0.00,CLR,,0.00,WeatherDisplay:10.37,2013-06-20 01:13:00,
2013-06-19 21:18:00,52.9,48.5,30.63,West,272,0.0,0.0,85,0.00,CLR,,0.00,WeatherDisplay:10.37,2013-06-20 01:18:00,
2013-06-19 21:23:00,52.2,48.1,30.64,West,272,0.0,0.0,86,0.00,CLR,,0.00,WeatherDisplay:10.37,2013-06-20 01:23:00,
2013-06-19 21:28:00,51.6,47.9,30.65,West,272,0.0,0.0,87,0.00,CLR,,0.00,WeatherDisplay:10.37,2013-06-20 01:28:00,
2013-06-19 21:33:00,51.2,47.8,30.65,West,272,0.0,0.0,88,0.00,CLR,,0.00,WeatherDisplay:10.37,2013-06-20 01:33:00,
2013-06-19 21:38:00,50.7,47.3,30.65,West,272,0.0,0.0,88,0.00,CLR,,0.00,WeatherDisplay:10.37,2013-06-20 01:38:00,
2013-06-19 21:43:00,50.4,47.6,30.65,West,272,0.0,0.0,90,0.00,CLR,,0.00,WeatherDisplay:10.37,2013-06-20 01:43:00,
2013-06-19 21:48:00,50.8,48.3,30.66,West,272,0.0,0.0,91,0.00,CLR,,0.00,WeatherDisplay:10.37,2013-06-20 01:48:00,
2013-06-19 21:53:00,50.9,48.4,30.66,West,272,0.0,0.0,91,0.00,CLR,,0.00,WeatherDisplay:10.37,2013-06-20 01:53:00,
2013-06-19 21:58:00,51.0,49.0,30.66,West,272,0.0,0.0,93,0.00,CLR,,0.00,WeatherDisplay:10.37,2013-06-20 01:58:00,
2013-06-19 22:03:00,50.9,48.9,30.66,West,272,0.0,0.0,93,0.00,FEW,,0.00,WeatherDisplay:10.37,2013-06-20 02:03:00,
2013-06-19 22:08:00,50.8,48.6,30.66,West,272,0.0,0.0,92,0.00,FEW,,0.00,WeatherDisplay:10.37,2013-06-20 02:08:00,
2013-06-19 22:13:00,50.5,48.3,30.67,West,272,0.0,0.0,92,0.00,FEW,,0.00,WeatherDisplay:10.37,2013-06-20 02:13:00,
2013-06-19 22:18:00,50.0,47.5,30.67,West,272,0.0,0.0,91,0.00,FEW,,0.00,WeatherDisplay:10.37,2013-06-20 02:18:00,
2013-06-19 22:23:00,49.6,47.4,30.67,West,272,0.0,0.0,92,0.00,FEW,,0.00,WeatherDisplay:10.37,2013-06-20 02:23:00,
2013-06-19 22:28:00,49.3,47.4,30.67,West,272,0.0,0.0,93,0.00,FEW,,0.00,WeatherDisplay:10.37,2013-06-20 02:28:00,
2013-06-19 22:33:00,49.2,47.5,30.66,West,272,0.0,0.0,94,0.00,FEW,,0.00,WeatherDisplay:10.37,2013-06-20 02:33:00,
2013-06-19 22:38:00,48.8,46.9,30.66,West,272,0.0,0.0,93,0.00,FEW,,0.00,WeatherDisplay:10.37,2013-06-20 02:38:00,
2013-06-19 22:43:00,48.3,46.4,30.67,West,272,0.0,0.0,93,0.00,FEW,,0.00,WeatherDisplay:10.37,2013-06-20 02:43:00,
2013-06-19 22:48:00,48.1,46.5,30.67,West,272,0.0,0.0,94,0.00,FEW,,0.00,WeatherDisplay:10.37,2013-06-20 02:48:00,
2013-06-19 22:53:00,48.0,46.6,30.67,West,272,0.0,0.0,95,0.00,FEW,,0.00,WeatherDisplay:10.37,2013-06-20 02:53:00,
2013-06-19 22:58:00,48.0,46.6,30.66,West,272,0.0,0.0,95,0.00,FEW,,0.00,WeatherDisplay:10.37,2013-06-20 02:58:00,
2013-06-19 23:03:00,48.0,46.6,30.66,West,272,0.0,0.0,95,0.00,CLR,,0.00,WeatherDisplay:10.37,2013-06-20 03:03:00,
2013-06-19 23:08:00,47.9,46.5,30.67,West,272,0.0,0.0,95,0.00,CLR,,0.00,WeatherDisplay:10.37,2013-06-20 03:08:00,
2013-06-19 23:13:00,47.6,46.2,30.67,West,272,0.0,0.0,95,0.00,CLR,,0.00,WeatherDisplay:10.37,2013-06-20 03:13:00,
2013-06-19 23:18:00,47.1,45.7,30.67,West,272,0.0,0.0,95,0.00,CLR,,0.00,WeatherDisplay:10.37,2013-06-20 03:18:00,
2013-06-19 23:23:00,47.1,46.0,30.67,West,272,0.0,0.0,96,0.00,CLR,,0.00,WeatherDisplay:10.37,2013-06-20 03:23:00,
2013-06-19 23:28:00,47.0,45.9,30.67,West,272,0.0,0.0,96,0.00,CLR,,0.00,WeatherDisplay:10.37,2013-06-20 03:28:00,
2013-06-19 23:33:00,47.1,46.0,30.67,West,272,0.0,0.0,96,0.00,CLR,,0.00,WeatherDisplay:10.37,2013-06-20 03:33:00,
2013-06-19 23:38:00,47.2,46.1,30.67,West,272,0.0,0.0,96,0.00,CLR,,0.00,WeatherDisplay:10.37,2013-06-20 03:38:00,
2013-06-19 23:43:00,47.1,46.0,30.68,West,272,0.0,0.0,96,0.00,CLR,,0.00,WeatherDisplay:10.37,2013-06-20 03:43:00,
2013-06-19 23:48:00,47.0,45.9,30.68,West,272,0.0,0.0,96,0.00,CLR,,0.00,WeatherDisplay:10.37,2013-06-20 03:48:00,
2013-06-19 23:53:00,46.7,45.6,30.68,West,272,0.0,0.0,96,0.00,CLR,,0.00,WeatherDisplay:10.37,2013-06-20 03:53:00,
2013-06-19 23:58:00,46.4,45.3,30.68,West,272,0.0,0.0,96,0.00,CLR,,0.00,WeatherDisplay:10.37,2013-06-20 03:58:00,